![]() |
EMODnet Physics ERDDAP
Easier access to scientific data |
log in|
Brought to you by EMODnet Physics |
| Dataset Title: | NDBC - Collection of dew point temperature (DEWT) TimeSeries - IN SITU MultiPointTimeSeriesObservation
|
| Institution: | NDBC (Dataset ID: TS_DEWT_NDBC) |
| Information: | Summary
| License
| FGDC
| ISO 19115
| Metadata
| Background
| Subset
| Data Access Form
| Make a graph
|
| Name | Last modified | Size | Description | |
|---|---|---|---|---|
| Parent Directory | - | - | ||
| 51209_TS_DEWT_012015.nc | 27-Oct-2024 04:32 | 432393 | ||
| 51209_TS_DEWT_012018.nc | 27-Oct-2024 04:32 | 438457 | ||
| 51209_TS_DEWT_012019.nc | 27-Oct-2024 04:32 | 433658 | ||
| 51209_TS_DEWT_012020.nc | 27-Oct-2024 04:32 | 437537 | ||
| 51209_TS_DEWT_012021.nc | 27-Oct-2024 04:32 | 439059 | ||
| 51209_TS_DEWT_012022.nc | 27-Oct-2024 04:32 | 439077 | ||
| 51209_TS_DEWT_012023.nc | 27-Oct-2024 04:32 | 440066 | ||
| 51209_TS_DEWT_022015.nc | 27-Oct-2024 04:32 | 434484 | ||
| 51209_TS_DEWT_022018.nc | 27-Oct-2024 04:32 | 431103 | ||
| 51209_TS_DEWT_022019.nc | 27-Oct-2024 04:32 | 440138 | ||
| 51209_TS_DEWT_022020.nc | 27-Oct-2024 04:32 | 423354 | ||
| 51209_TS_DEWT_022021.nc | 27-Oct-2024 04:32 | 428537 | ||
| 51209_TS_DEWT_022022.nc | 27-Oct-2024 04:32 | 435465 | ||
| 51209_TS_DEWT_022023.nc | 27-Oct-2024 04:33 | 439134 | ||
| 51209_TS_DEWT_032015.nc | 27-Oct-2024 04:33 | 435516 | ||
| 51209_TS_DEWT_032016.nc | 27-Oct-2024 04:33 | 438376 | ||
| 51209_TS_DEWT_032018.nc | 27-Oct-2024 04:33 | 440148 | ||
| 51209_TS_DEWT_032019.nc | 27-Oct-2024 04:33 | 588181 | ||
| 51209_TS_DEWT_032020.nc | 27-Oct-2024 04:33 | 588150 | ||
| 51209_TS_DEWT_032021.nc | 27-Oct-2024 04:33 | 588169 | ||
| 51209_TS_DEWT_032022.nc | 27-Oct-2024 04:33 | 588205 | ||
| 51209_TS_DEWT_032023.nc | 27-Oct-2024 04:33 | 588194 | ||
| 51209_TS_DEWT_042015.nc | 27-Oct-2024 04:33 | 438688 | ||
| 51209_TS_DEWT_042016.nc | 27-Oct-2024 04:33 | 437692 | ||
| 51209_TS_DEWT_042017.nc | 27-Oct-2024 04:33 | 435144 | ||
| 51209_TS_DEWT_042018.nc | 27-Oct-2024 04:33 | 439843 | ||
| 51209_TS_DEWT_042019.nc | 27-Oct-2024 04:33 | 587766 | ||
| 51209_TS_DEWT_042020.nc | 27-Oct-2024 04:34 | 439204 | ||
| 51209_TS_DEWT_042021.nc | 27-Oct-2024 04:34 | 440165 | ||
| 51209_TS_DEWT_042022.nc | 27-Oct-2024 04:34 | 438413 | ||
| 51209_TS_DEWT_042023.nc | 16-Sep-2024 16:51 | 588162 | ||
| 51209_TS_DEWT_052015.nc | 27-Oct-2024 04:34 | 588145 | ||
| 51209_TS_DEWT_052016.nc | 27-Oct-2024 04:34 | 588203 | ||
| 51209_TS_DEWT_052017.nc | 27-Oct-2024 04:34 | 588146 | ||
| 51209_TS_DEWT_052018.nc | 27-Oct-2024 04:34 | 438070 | ||
| 51209_TS_DEWT_052019.nc | 27-Oct-2024 04:34 | 438619 | ||
| 51209_TS_DEWT_052020.nc | 27-Oct-2024 04:34 | 439564 | ||
| 51209_TS_DEWT_052021.nc | 27-Oct-2024 04:34 | 437461 | ||
| 51209_TS_DEWT_052022.nc | 27-Oct-2024 04:34 | 439913 | ||
| 51209_TS_DEWT_052023.nc | 16-Sep-2024 16:51 | 439183 | ||
| 51209_TS_DEWT_062015.nc | 27-Oct-2024 04:34 | 427094 | ||
| 51209_TS_DEWT_062016.nc | 27-Oct-2024 04:34 | 436935 | ||
| 51209_TS_DEWT_062017.nc | 27-Oct-2024 04:34 | 438593 | ||
| 51209_TS_DEWT_062018.nc | 27-Oct-2024 04:34 | 440155 | ||
| 51209_TS_DEWT_062019.nc | 27-Oct-2024 04:34 | 440142 | ||
| 51209_TS_DEWT_062020.nc | 27-Oct-2024 04:34 | 588018 | ||
| 51209_TS_DEWT_062021.nc | 27-Oct-2024 04:34 | 440158 | ||
| 51209_TS_DEWT_062022.nc | 27-Oct-2024 04:34 | 588053 | ||
| 51209_TS_DEWT_062023.nc | 16-Sep-2024 16:51 | 435183 | ||
| 51209_TS_DEWT_072016.nc | 27-Oct-2024 04:34 | 428660 | ||
| 51209_TS_DEWT_072017.nc | 27-Oct-2024 04:34 | 431063 | ||
| 51209_TS_DEWT_072018.nc | 27-Oct-2024 04:35 | 422556 | ||
| 51209_TS_DEWT_072019.nc | 27-Oct-2024 04:35 | 431979 | ||
| 51209_TS_DEWT_072020.nc | 27-Oct-2024 04:35 | 435836 | ||
| 51209_TS_DEWT_072021.nc | 27-Oct-2024 04:35 | 587855 | ||
| 51209_TS_DEWT_072022.nc | 27-Oct-2024 04:35 | 438042 | ||
| 51209_TS_DEWT_072023.nc | 16-Sep-2024 16:51 | 430084 | ||
| 51209_TS_DEWT_082016.nc | 27-Oct-2024 04:35 | 436533 | ||
| 51209_TS_DEWT_082017.nc | 27-Oct-2024 04:35 | 424270 | ||
| 51209_TS_DEWT_082018.nc | 27-Oct-2024 04:35 | 426011 | ||
| 51209_TS_DEWT_082019.nc | 27-Oct-2024 04:35 | 419000 | ||
| 51209_TS_DEWT_082020.nc | 27-Oct-2024 04:35 | 422958 | ||
| 51209_TS_DEWT_082021.nc | 27-Oct-2024 04:35 | 428685 | ||
| 51209_TS_DEWT_082022.nc | 27-Oct-2024 04:35 | 437023 | ||
| 51209_TS_DEWT_082023.nc | 16-Sep-2024 16:51 | 420171 | ||
| 51209_TS_DEWT_092016.nc | 27-Oct-2024 04:35 | 425980 | ||
| 51209_TS_DEWT_092017.nc | 27-Oct-2024 04:35 | 421422 | ||
| 51209_TS_DEWT_092018.nc | 27-Oct-2024 04:35 | 647027 | ||
| 51209_TS_DEWT_092019.nc | 27-Oct-2024 04:35 | 1264971 | ||
| 51209_TS_DEWT_092020.nc | 27-Oct-2024 04:35 | 444157 | ||
| 51209_TS_DEWT_092021.nc | 27-Oct-2024 04:35 | 1262358 | ||
| 51209_TS_DEWT_092022.nc | 27-Oct-2024 04:36 | 1106721 | ||
| 51209_TS_DEWT_092023.nc | 16-Sep-2024 16:51 | 1263316 | ||
| 51209_TS_DEWT_102014.nc | 27-Oct-2024 04:36 | 1110642 | ||
| 51209_TS_DEWT_102016.nc | 27-Oct-2024 04:36 | 435378 | ||
| 51209_TS_DEWT_102017.nc | 27-Oct-2024 04:36 | 983807 | ||
| 51209_TS_DEWT_102018.nc | 27-Oct-2024 04:36 | 1266371 | ||
| 51209_TS_DEWT_102019.nc | 27-Oct-2024 04:36 | 421529 | ||
| 51209_TS_DEWT_102020.nc | 27-Oct-2024 04:36 | 473934 | ||
| 51209_TS_DEWT_102021.nc | 27-Oct-2024 04:36 | 444431 | ||
| 51209_TS_DEWT_102022.nc | 27-Oct-2024 04:36 | 635446 | ||
| 51209_TS_DEWT_102023.nc | 16-Sep-2024 16:51 | 428871 | ||
| 51209_TS_DEWT_112014.nc | 27-Oct-2024 04:36 | 680925 | ||
| 51209_TS_DEWT_112016.nc | 27-Oct-2024 04:36 | 992094 | ||
| 51209_TS_DEWT_112017.nc | 27-Oct-2024 04:36 | 988252 | ||
| 51209_TS_DEWT_112018.nc | 27-Oct-2024 04:36 | 1106753 | ||
| 51209_TS_DEWT_112019.nc | 27-Oct-2024 04:36 | 606100 | ||
| 51209_TS_DEWT_112020.nc | 27-Oct-2024 04:36 | 1097943 | ||
| 51209_TS_DEWT_112021.nc | 27-Oct-2024 04:36 | 1262930 | ||
| 51209_TS_DEWT_112022.nc | 27-Oct-2024 04:36 | 1019097 | ||
| 51209_TS_DEWT_122014.nc | 27-Oct-2024 04:36 | 660640 | ||
| 51209_TS_DEWT_122017.nc | 27-Oct-2024 04:36 | 1001181 | ||
| 51209_TS_DEWT_122018.nc | 27-Oct-2024 04:36 | 686363 | ||
| 51209_TS_DEWT_122019.nc | 27-Oct-2024 04:36 | 1111663 | ||
| 51209_TS_DEWT_122020.nc | 27-Oct-2024 04:37 | 1112601 | ||
| 51209_TS_DEWT_122021.nc | 27-Oct-2024 04:37 | 1023446 | ||
| 51209_TS_DEWT_122022.nc | 27-Oct-2024 04:37 | 1112932 | ||